sat.trackr.live / text

‹ back to catalog

ONEWEB-0609

NORAD 56070 · 2023-043AA

PAYLOAD ACTIVE UNKNOWN

§ Identity

Operator
Country
UK
Launch date
2023-03-26
Launch site
SRILR
Launch vehicle
Mass (kg)
RCS (m²)

Purposes: comms

External: N2YO · Heavens-Above · Gunter

§ Orbital elements

Epoch: 2026-09-20T04:14:50.972640Z

Period
109.46 min
Inclination
87.8984°
Eccentricity
0.0001928
Mean motion
13.15548290 rev/d
Perigee alt
1,200.3 km
Apogee alt
1,203.2 km
Semi-major
7,579.9 km
B*
1.5726e-4
RAAN
240.2674°
Arg perigee
82.6284°
Mean anomaly
277.5065°
Rev number
16,892

§ Raw data

ONEWEB-06091 56070U 23043AA  26263.17697885  .00000072  00000+0  15726-3 0  99922 56070  87.8984 240.2674 0001928  82.6284 277.5065 13.15548290168925

JSON: /api/v1/satellites/56070 · /tle

For live sub-satellite position, see the globe view (requires WebGL).

§ Visibility from observer

Set your observer location to see the next 7 days of passes ≥ 10°. The values pass through the URL so the page stays shareable.

No JS? Fill the form by hand. The geolocation button needs JavaScript.